Regional Weather Roundup
Issued by NWS San Diego, CA

Home | Current Version | Previous Version | Text Only | Print | Product List | Glossary On
Versions: 1 2 3 4 5 6 7 8 9 10 11 12 13 14 15 16 17 18 19 20 21 22 23 24 25 26 27 28 29 30 31 32 33 34 35 36 37 38 39 40 41 42 43 44 45 46 47 48 49 50
000
ASUS46 KSGX 100110
RWRSGX

SAN DIEGO HOURLY WEATHER ROUNDUP
NATIONAL WEATHER SERVICE SAN DIEGO CA
600 PM PDT WED JUL 09 2014

NOTE: "FAIR" INDICATES FEW OR NO CLOUDS BELOW 12,000 FEET WITH NO
SIGNIFICANT WEATHER AND/OR OBSTRUCTIONS TO VISIBILITY.

CAZ042-043-060-061-PZZ750-775-100200-

GREATER SAN DIEGO AREA

CITY           SKY/WX    TMP DP  RH WIND       PRES   REMARKS
LINDBERGH FLD  MOSUNNY   73  60  63 VRB6      29.92F
POINT LOMA       N/A     73  62  67 W10         N/A
NATIONAL CITY    N/A     74  64  70 CALM      29.92F
CHULA VISTA      N/A     76  65  69 W6        29.85F
IMPERIAL BEACH PTSUNNY   70  61  73 SW9       29.92F
BROWN FIELD    SUNNY     72  60  66 W8        29.92S
MIRAMAR MCAS   MOSUNNY   73  60  63 W9        29.91F
MONTGOMERY FLD SUNNY     72  61  68 SW6       29.91F

$$

NORTH SAN DIEGO COUNTY

CITY           SKY/WX    TMP DP  RH WIND       PRES   REMARKS
CAMP PENDLETON MOSUNNY   73  61  65 SW12      29.89F
OCEANSIDE AP   MOSUNNY   70  62  76 SW12      29.90S
VISTA            N/A     74  64  69 SW1       29.88S
CARLSBAD       PTSUNNY   70  61  73 W7        29.90F
DEL MAR          N/A     72  64  75 CALM      29.93F
LA JOLLA SCRIP   N/A     69  64  85 W5        29.89F
FALLBROOK        N/A     77  62  60 S7        29.89R
ESCONDIDO        N/A     79  61  54 SW3       29.90S
SAN MARCOS       N/A     73  63  69 S3        29.88S
POWAY            N/A     79  61  54 W5        29.90S
R. PENASQUITOS   N/A     78  62  58 S3        29.91S

$$

EAST SAN DIEGO COUNTY

CITY           SKY/WX    TMP DP  RH WIND       PRES   REMARKS
RAMONA         SUNNY     81  55  40 W12       29.92F
GILLESPIE FLD  FAIR      81  57  44 SW8       29.92S
LA MESA          N/A     75  64  70 W3        29.84F
JAMUL            N/A     78  62  56 W1        29.88F
DESCANSO N       N/A     82  54  37 W5        29.74F
MT. LAGUNA OBS   N/A     75  42  31 CALM      29.74S
CAMPO            N/A     83  52  34 SW18      29.92F

$$

ORANGE COUNTY AND THE LOS ANGELES BASIN

CITY           SKY/WX    TMP DP  RH WIND       PRES   REMARKS
JOHN WAYNE AP  MOSUNNY   78  61  55 SW8       29.88F
LAGUNA BEACH     N/A     76  67  72 S3        29.86F
LAKE FOREST FR   N/A     83  60  45 CALM      29.77F
SANTA ANA        N/A     82  65  57 CALM      29.83F
HUNTINGTON BCH   N/A     74  67  77 W9        29.90F
LOS ALAMITOS   MOSUNNY   77  63  60 SW13      29.87F
FULLERTON      SUNNY     81  61  50 S9        29.86S
LONG BEACH     SUNNY     77  62  59 NW12      29.87F
L.A. AP        PTSUNNY   72  62  71 W15       29.90S
L.A. DOWNTOWN  SUNNY     76  62  62 VRB7      29.88S

$$

THE INLAND EMPIRE

CITY           SKY/WX    TMP DP  RH WIND       PRES   REMARKS
CORONA         SUNNY     84  60  44 CALM      29.85F
CHINO          MOSUNNY   85  52  32 W17       29.87S
ONTARIO        MOSUNNY   88  50  27 SW15      29.86F
SAN BERNARDINO MOSUNNY   91  41  17 SW15      29.87S
RIVERSIDE AP   SUNNY     87  52  29 W14G22    29.86S
RIV CYN CREST    N/A     88  60  38 W5        29.85S
MORENO VALLEY    N/A     91  53  27 W5        28.01S
MARCH ARB      SUNNY     89  49  26 NW16      29.90S
HORSETHIEF CYN   N/A     91  53  27 NW6       29.85S
PERRIS           N/A     88  55  32 SW6         N/A
MENIFEE          N/A     89  55  31 SE6       29.93R
HEMET EAST       N/A     88  47  23 SW2       29.84S
FRENCH VALLEY  FAIR      84  52  32 S12       29.90S
TEMECULA         N/A     84  56  37 SW7       29.87S

$$

SAN BERNARDINO AND RIVERSIDE COUNTY MOUNTAINS

CITY           SKY/WX    TMP DP  RH WIND       PRES   REMARKS
BIG BEAR AP    MOSUNNY   73  32  21 SW8       30.23S
PINE COVE        N/A     75  48  38 W3        29.82F

$$

SOUTHERN DESERT INCLUDING THE COACHELLA VALLEY

CITY           SKY/WX    TMP DP  RH WIND       PRES   REMARKS
PALM SPRINGS   SUNNY    104  63  26 SE9       29.74F HX 106
THOUSAND PALMS   N/A    102  66  31 SE5       29.69F HX 106
PALM DESERT      N/A    103  69  32 CALM      30.28S HX 110
THERMAL        MOSUNNY  104  60  23 SE6       29.68F HX 105
BLYTHE         MOSUNNY  100  65  31 SE14      29.73F HX 103
IMPERIAL AP    SUNNY    102  65  29 SE21      29.69F HX 105
EL CENTRO NAS  MOSUNNY  102  68  33 SE13      29.69F HX 108
YUMA AZ        PTSUNNY  100  65  31 S18       29.75F HX 103
MEXICALI       MOSUNNY   99  64  32 SE15      29.73  HX 101

$$

UPPER DESERT

CITY           SKY/WX    TMP DP  RH WIND       PRES   REMARKS
VICTORVILLE AP MOSUNNY   97  36  11 S18       29.90S
HESPERIA         N/A     89  41  18 SW13      29.85S
APPLE VALLEY     N/A     90  38  16 S18G35    29.97S
GRAY BUTTE AP  FAIR      95  40  14 W17G29    29.90S
PALMDALE       SUNNY     92  39  15 SW25G33   29.89F
LANCASTER      SUNNY     91  45  20 SW23G31   29.88F
EDWARDS AFB    MOSUNNY   96  37  12 SW23G31   29.84S
DAGGETT        MOSUNNY   94  44  17 SE22      29.81S
29 PALMS N     PTSUNNY   98  55  23 SE10      29.89F HX  96
NEEDLES        MOSUNNY   98  66  34 W15       29.77F HX 101

$$

REGIONAL REPORTS

CITY           SKY/WX    TMP DP  RH WIND       PRES   REMARKS
SANTA BARBARA  SUNNY     69  60  73 W13       29.89S
SANDBERG       SUNNY     82  47  29 S13       30.08F
MT. WILSON       N/A     79  43  27 MISG        N/A
LAS VEGAS NV   PTSUNNY   95  58  28 NE5       29.79F
PHOENIX AZ     PTSUNNY   98  60  28 W9        29.79S HX  98
TIJUANA        SUNNY     72  57  60 NW8       29.94S
ENSENADA NW      N/A     70  32  24 W6        29.90F

$$

OFFSHORE ISLANDS

CITY           SKY/WX    TMP DP  RH WIND       PRES   REMARKS
CATALINA ARPT  FOG       63  59  87 SW15      29.93F VSB 3/4
SAN CLEMENTE I PTSUNNY   68  61  78 W15       29.93F
SAN NICOLAS IS MOSUNNY  N/A N/A N/A W16       29.91F

$$

MARINE AND OFFSHORE BUOY REPORTS

STATION/POSITION SKY/WX   TEMP    WIND        PRES    SWELL
                          AIR SEA DIR/SP/G            HT/PER/DIR
                          (F)     (DEG/KT/KT) (MB)    (FT/S/D)
TANNER BANKS               61 63  300/ 12/ 16 1013.7F   3/190/15
S CLEMENTE BASIN           66 69  300/ 14/ 16 1012.6F   3/190/15
SO. S. ROSA ISLA           62 68  310/ 16/ 19 1012.8F   5/ 9
W. S. BARBARA CH           61 65  300/ 19/ 23 1012.3F   3/310/ 9
M. S. BARBARA CH           63 69  260/ 17/ 19 1012.9
S. MONICA BASIN            66 69  270/ 10/ 12 1012.0F   2/180/15
S PEDRO CHANNEL               71                N/A     2/160/15
DANA POINT                    75                N/A     2/180/15
CMP PENDLETON NS              74                N/A     2/210/14
OCEANSIDE OFFSHR              74                N/A     2/180/14
TORREY PINES OTR              74                N/A     2/190/14
LA JOLLA 1                 69 70  260/  5/  6 1013.0F
SAN DIEGO BAY                 77              1013.3F
POINT LOMA SOUTH              72                N/A     2/180/15

$$



USA.gov is the U.S. government's official web portal to all federal, state and local government web resources and services.